Regional Weather Roundup
Issued by NWS

Home | Current Version | Previous Version | Graphics & Text | Print | Product List | Glossary On
Versions: 1 2 3 4 5 6 7 8 9 10 11 12 13 14 15 16 17 18 19 20 21 22 23 24 25 26 27 28 29 30 31 32 33 34 35 36 37 38 39 40 41 42 43 44 45 46 47 48 49 50
000
ASUS43 KOAX 280802
RWRNE

WEATHER ROUNDUP FOR NEBRASKA
NATIONAL WEATHER SERVICE OMAHA NE
300 AM CDT TUE JUL 28 2015

NOTES: SATELLITE DATA IS BEING USED TO AUGMENT CLOUD COVER ABOVE
       12000 FEET.
       "FAIR" INDICATES FEW OR NO CLOUDS BELOW 12,000 FEET WITH NO
       SIGNIFICANT WEATHER AND/OR OBSTRUCTIONS TO VISIBILITY.

  * THESE STATIONS DO NOT REPORT WEATHER SUCH AS RAIN...SNOW OR FOG.

NEZ001>004-019>022-054>056-280900-
NEBRASKA PANHANDLE

CITY           SKY/WX    TMP DP  RH WIND       PRES   REMARKS
SCOTTSBLUFF    CLEAR     62  52  69 N20G26    29.97R
ALLIANCE       CLEAR     64  52  64 N17       29.93R
CHADRON        CLEAR     60  50  69 W18G26    29.92R
KIMBALL        CLEAR     64  37  36 NW14      29.98R
SIDNEY         CLEAR     66  51  58 NW13      29.94R
$$

NEZ057>060-069>072-079>082-280900-
SOUTHWEST NEBRASKA

CITY           SKY/WX    TMP DP  RH WIND       PRES   REMARKS
NORTH PLATTE   CLEAR     79  68  69 NW8G23    29.76R
IMPERIAL       CLEAR     74  64  71 SW7       29.78S
MCCOOK         CLEAR     82  68  62 S16G28    29.73F
$$

NEZ005>010-023>029-035>040-094-280900-
NORTH CENTRAL NEBRASKA

CITY           SKY/WX    TMP DP  RH WIND       PRES   REMARKS
VALENTINE      CLOUDY    68  65  90 SW7       29.74F
BROKEN BOW     MOCLDY    83  68  60 W17G26    29.79R
O`NEILL        TSTM      77  72  83 W8G22     29.78R
ORD            MOCLDY    80  66  62 S10       29.72S
$$

NEZ041-046>049-061>064-073>077-083>087-280900-
SOUTH CENTRAL NEBRASKA

CITY           SKY/WX    TMP DP  RH WIND       PRES   REMARKS
GRAND ISLAND   PTCLDY    78  68  71 S15       29.75F
AURORA         CLEAR     79  69  72 S15       29.77S
HASTINGS       CLEAR     80  68  66 S14       29.77F
HEBRON         CLEAR     79  69  72 S12G17    29.80S
HOLDREGE       CLEAR     78  68  71 S12G17    29.76F
KEARNEY *      CLEAR     79  68  69 S17       29.75F
$$

NEZ011>018-030>034-042>045-280900-
NORTHEAST NEBRASKA

CITY           SKY/WX    TMP DP  RH WIND       PRES   REMARKS
NORFOLK        PTCLDY    78  74  87 S17G24    29.74F
ALBION         PTCLDY    78  67  68 SE10      29.74F
BLAIR          CLEAR     75  69  82 S13       29.81F
COLUMBUS *     PTCLDY    81  68  65 S7        29.77S
FREMONT        PTCLDY    77  72  85 SE12      29.80F
TEKAMAH        CLEAR     75  72  90 SE9       29.79F
$$

NEZ050>053-065>068-078-088>093-280900-
SOUTHEAST NEBRASKA

CITY           SKY/WX    TMP DP  RH WIND       PRES   REMARKS
LINCOLN        CLEAR     80  72  76 S14       29.78F
OMAHA EPPLEY   CLEAR     77  71  82 S13       29.81F
BEATRICE       CLEAR     79  72  77 S10       29.82S
FALLS CITY     CLEAR     75  73  93 SE7       29.83F
NEBRASKA CITY  CLEAR     74  73  97 SE8       29.84S
$$

NEZ044-045-051>053-067-280900-
OMAHA AREA

CITY           SKY/WX    TMP DP  RH WIND       PRES   REMARKS
OMAHA EPPLEY   CLEAR     77  71  82 S13       29.81F
BLAIR          CLEAR     75  69  82 S13       29.81F
FREMONT        PTCLDY    77  72  85 SE12      29.80F
OFFUTT AFB     CLEAR     75  71  89 SE7       29.81F
WAHOO          FAIR      74  73  93 SE9       29.80S
$$


USA.gov is the U.S. government's official web portal to all federal, state and local government web resources and services.